Location: ?????
(55.8833°N, 37.6500°E)
Time: 18:33:45
(UTC+00:00)

STARLINK-1056 - Pass Details

Date: 11 July 2020
Orbit: 549 x 550 km, 53.0° (Epoch: 08 August)

Event Time Altitude Azimuth Distance (km) Brightness Sun altitude
Rises 21:24:08 0° 278° (W) 2,722 7.3 -12.1°
Reaches altitude 10° 21:27:42 10° 246° (WSW) 1,823 6.0 -12.2°
Maximum altitude 21:29:12 12° 224° (SW) 1,709 5.7 -12.2°
Enters shadow 21:29:34 12° 219° (SW) 1,715 5.7 -12.2°
